[[{"header":{"parameterUnit":"m.s-1","parameterCategory":1,"la1":30.2992,"la2":30.254,"lo1":-89.0895,"lo2":-89.0443,"dy":0.0025,"dx":0.0025,"nx":19,"ny":19,"refTime":"2026-03-07T09:00:00:Z","depth":0,"parameterNumber":2,"parameterNumberName":"U-component_of_WINDS"},"data":[0,0,0,-1.641,-1.6411,-1.6473,-1.6473,-1.6548,-1.6549,0,0,0,0,0,0,0,0,0,0,0,-1.639,-1.639,-1.641,-1.6412,-1.6473,-1.6473,-1.6548,-1.6549,0,0,0,0,0,0,0,0,0,0,0,-1.639,-1.639,-1.6391,-1.6412,-1.6473,-1.6473,-1.6548,-1.6503,0,0,0,0,0,0,0,0,0,0,-1.6444,-1.6423,-1.639,-1.6391,-1.6412,-1.6473,-1.6473,-1.6501,-1.6506,-1.6519,0,-1.653,0,-1.6541,-1.6554,-1.6554,0,0,0,-1.6413,-1.6419,-1.6438,-1.6391,-1.6413,-1.6472,-1.6446,-1.6504,-1.6509,-1.6526,-1.6532,-1.6534,-1.6542,-1.6554,-1.6555,-1.6626,-1.6626,0,0,-1.641,-1.64,-1.6434,-1.6441,-1.6431,-1.6444,-1.6447,-1.6507,-1.6513,-1.6532,-1.6536,-1.6543,-1.6555,-1.6555,-1.6625,-1.6626,0,0,0,-1.6399,-1.6398,-1.6415,-1.6438,-1.6449,-1.6445,-1.645,-1.651,-1.6517,-1.6537,-1.6544,-1.6555,-1.6556,-1.6625,-1.6625,-1.6627,0,0,0,-1.6397,-1.6391,-1.6413,-1.6408,-1.6448,-1.648,-1.6451,-1.6512,-1.6519,-1.6544,-1.6555,-1.6557,-1.6625,-1.6625,-1.6627,-1.6629,0,0,0,-1.6387,-1.639,-1.6398,-1.6407,-1.6433,-1.648,-1.6489,-1.6514,-1.6524,-1.6554,-1.6557,-1.6625,-1.6625,-1.6626,-1.6629,-1.6644,0,0,0,-1.6373,-1.64,-1.6398,-1.6431,-1.6432,-1.648,-1.6489,-1.6526,-1.6552,-1.6556,-1.6625,-1.6625,-1.6626,-1.6628,-1.6643,-1.6655,-1.6659,0,0,-1.6401,-1.6403,-1.6423,-1.6423,-1.6469,-1.6472,-1.6518,-1.6552,-1.6565,-1.6605,-1.6607,-1.6627,-1.6628,-1.6644,-1.6687,-1.669,0,0,0,-1.6428,-1.6443,-1.6457,-1.6481,-1.6507,-1.653,-1.6558,-1.657,-1.6605,-1.6583,-1.6638,-1.6639,-1.6649,-1.6654,-1.6657,-1.6665,-1.6628,-1.6628,-1.6628,-1.6454,-1.6468,-1.6501,-1.6522,-1.6546,-1.6574,-1.6595,-1.6616,-1.6624,-1.6637,-1.6648,-1.6673,-1.6679,-1.6681,-1.6689,-1.6657,-1.6657,-1.6657,-1.6657,-1.6495,-1.6517,-1.6526,-1.6562,-1.6577,-1.6607,-1.6636,-1.664,-1.6671,-1.6665,-1.6674,-1.6666,-1.6684,-1.6692,-1.6657,-1.6657,-1.6657,-1.6657,-1.6657,-1.6512,-1.6525,-1.6539,-1.6575,-1.6602,-1.6623,-1.6652,-1.6665,-1.6677,-1.6686,-1.6699,-1.6699,-1.67,-1.6692,-1.6692,-1.6692,-1.6692,-1.6692,-1.6692,-1.6523,-1.654,-1.6562,-1.6592,-1.6609,-1.6633,-1.6662,-1.6679,-1.6701,-1.6708,-1.6709,-1.6714,-1.6684,-1.6674,-1.6694,-1.6693,-1.6693,-1.6693,-1.6693,-1.6558,-1.6552,-1.6586,-1.6603,-1.6639,-1.6664,-1.668,-1.6714,-1.6731,-1.6744,-1.6749,-1.6724,-1.6727,-1.6725,-1.6717,-1.6746,-1.6746,-1.6746,-1.6746,-1.6571,-1.6574,-1.6611,-1.6637,-1.6664,-1.6682,-1.672,-1.6743,-1.6766,-1.6777,-1.6775,-1.6767,-1.6765,-1.6769,-1.6766,-1.6759,-1.6798,-1.6798,-1.6798,-1.6593,-1.6598,-1.6628,-1.6649,-1.6678,-1.6703,-1.6739,-1.6769,-1.6794,-1.68,-1.6786,-1.6783,-1.6771,-1.6766,-1.677,-1.6765,-1.6753,0,0]},{"header":{"parameterUnit":"m.s-1","parameterCategory":1,"la1":30.2992,"la2":30.254,"lo1":-89.0895,"lo2":-89.0443,"dy":0.0025,"dx":0.0025,"nx":19,"ny":19,"refTime":"2026-03-07T09:00:00:Z","depth":0,"parameterNumber":3,"parameterNumberName":"V-component_of_WINDS"},"data":[0,0,0,3.2534,3.2536,3.2623,3.2623,3.2725,3.2726,0,0,0,0,0,0,0,0,0,0,0,3.2503,3.2504,3.2534,3.2536,3.2623,3.2623,3.2725,3.2726,0,0,0,0,0,0,0,0,0,0,0,3.2503,3.2503,3.2504,3.2536,3.2623,3.2623,3.2725,3.2663,0,0,0,0,0,0,0,0,0,0,3.258,3.2546,3.2503,3.2504,3.2537,3.2623,3.2623,3.266,3.2666,3.2682,0,3.2695,0,3.2712,3.2732,3.2733,0,0,0,3.254,3.254,3.2569,3.2504,3.2538,3.2622,3.2585,3.2664,3.2671,3.2691,3.2697,3.2701,3.2714,3.2733,3.2734,3.2815,3.2815,0,0,3.2535,3.2516,3.2563,3.2573,3.256,3.2582,3.2587,3.2668,3.2673,3.2697,3.2703,3.2716,3.2734,3.2734,3.2815,3.2815,0,0,0,3.2519,3.2512,3.2539,3.2569,3.2585,3.2584,3.2591,3.2669,3.268,3.2705,3.2717,3.2734,3.2735,3.2815,3.2815,3.2808,0,0,0,3.2516,3.2503,3.2536,3.2525,3.2584,3.2628,3.2589,3.2674,3.2684,3.2716,3.2734,3.2736,3.2815,3.2815,3.2808,3.2808,0,0,0,3.2499,3.2501,3.2512,3.2524,3.2561,3.2627,3.2643,3.2676,3.2691,3.2733,3.2737,3.2815,3.2815,3.2808,3.2807,3.2825,0,0,0,3.2476,3.2502,3.2511,3.2546,3.256,3.2622,3.2642,3.2689,3.2724,3.2735,3.2815,3.2815,3.2807,3.2807,3.2824,3.2836,3.2839,0,0,3.2499,3.2504,3.2527,3.2537,3.2593,3.2611,3.2666,3.2715,3.2736,3.2788,3.279,3.2808,3.2807,3.2825,3.2862,3.2864,0,0,0,3.2528,3.2544,3.2563,3.2596,3.2635,3.2669,3.2713,3.2731,3.2777,3.2759,3.2819,3.2819,3.283,3.2837,3.2839,3.285,3.2817,3.2817,3.2817,3.2532,3.2559,3.2599,3.2637,3.2668,3.2714,3.2743,3.2776,3.2792,3.2806,3.2821,3.2841,3.2848,3.285,3.2861,3.283,3.283,3.283,3.283,3.2569,3.2596,3.262,3.2667,3.2695,3.2735,3.278,3.2791,3.2832,3.2831,3.2842,3.2839,3.2852,3.2863,3.2829,3.2829,3.2829,3.2829,3.2829,3.2576,3.2594,3.2617,3.267,3.2707,3.2744,3.2784,3.2808,3.2831,3.2842,3.2862,3.2862,3.2866,3.2849,3.285,3.285,3.285,3.285,3.285,3.2573,3.26,3.263,3.2676,3.2702,3.2739,3.2787,3.2813,3.2848,3.2863,3.2863,3.2879,3.2848,3.284,3.2851,3.2851,3.2851,3.2851,3.285,3.2601,3.2599,3.2646,3.2672,3.2729,3.2766,3.2797,3.2849,3.2874,3.2893,3.2907,3.288,3.2887,3.2886,3.2879,3.29,3.29,3.29,3.29,3.2607,3.2613,3.2668,3.2709,3.2751,3.2785,3.2838,3.2876,3.2915,3.2933,3.2934,3.2927,3.2925,3.2933,3.2931,3.2926,3.2958,3.2958,3.2958,3.2626,3.2638,3.2679,3.2718,3.2766,3.2806,3.2857,3.2903,3.2947,3.2961,3.2948,3.2945,3.2935,3.293,3.2943,3.2938,3.2929,0,0]}]]